Location: San Gennaro Vesuviano
(40.8833°N, 14.5333°E)
Time: 10:10:49
(UTC+00:00)

Cosmos 2058 Rocket - Pass Details

Date: 22 April 2021
Orbit: 611 x 639 km, 82.5° (Epoch: 10 May)

Event Time Altitude Azimuth Distance (km) Brightness Sun altitude
Rises 18:28:31 0° 187° (S) 2,862 6.3 -7.8°
Reaches altitude 10° 18:30:43 10° 188° (S) 1,961 5.5 -8.2°
Maximum altitude 18:35:04 86° 276° (W) 618 3.1 -8.9°
Drops below altitude 10° 18:39:26 10° 7° (N) 1,975 5.9 -9.7°
Sets 18:41:40 0° 8° (N) 2,885 6.7 -10.1°
